Stations météo

réclame
Mon MeteoGroup
L9F, Pays-Bas (6207): Température de l'air & dewpoint: 21.05.2018 07:00:00 - 27.05.2018 07:00:00 (CEST)L9F, Pays-Bas (6207): Vitesse du vent & gusts: 21.05.2018 07:00:00 - 27.05.2018 07:00:00 (CEST)L9F, Pays-Bas (6207): Direction du vent: 21.05.2018 07:00:00 - 27.05.2018 07:00:00 (CEST)L9F, Pays-Bas (6207): reduced air pressure: 21.05.2018 07:00:00 - 27.05.2018 07:00:00 (CEST)L9F, Pays-Bas (6207): visibility: 21.05.2018 07:00:00 - 27.05.2018 07:00:00 (CEST)
Date & Time tt [°C] td [°C] ff [km/h] ff [knt] fx [km/h] fx [knt] dd ppp [hPa] vv [km]
27.05.2018 07:00:00 14,8 12,5 48 26 47 25 E 1021,7 10
27.05.2018 06:00:00 16,1 12,6 39 21 47 25 ESE 1021,8 10
27.05.2018 05:00:00 15,9 12,4 43 23 47 25 E 1021,8 25
27.05.2018 04:00:00 15,2 12,5 54 29 50 27 E 1021,7 10
27.05.2018 03:00:00 15,3 12,2 52 28 50 27 E 1022,1 10
27.05.2018 02:00:00 16,7 12,2 59 32 58 31 E 1022,5 10
27.05.2018 01:00:00 16,9 12,2 59 32 58 31 E 1022,6 10
27.05.2018 00:00:00 15,9 12,4 55 30 54 29 E 1022,6 10
26.05.2018 23:00:00 15,4 12,3 50 27 54 29 E 1022,6 31
26.05.2018 22:00:00 15,9 12,4 57 31 54 29 E 1022,4 10
26.05.2018 21:00:00 15,6 12,4 55 30 58 31 E 1022,1 10
26.05.2018 20:00:00 15,2 12,5 55 30 50 27 E 1022,2 10
26.05.2018 19:00:00 14,8 12,1 52 28 50 27 ENE 1022,1 10
26.05.2018 18:00:00 14,2 12,0 48 26 43 23 ENE 1022,3 10
26.05.2018 17:00:00 13,9 11,8 48 26 43 23 ENE 1022,6 10
26.05.2018 16:00:00 13,7 11,6 46 25 43 23 ENE 1022,9 10
26.05.2018 15:00:00 13,6 11,8 44 24 43 23 ENE 1023,0 10
26.05.2018 14:00:00 13,8 11,4 40 21 43 23 ENE 1023,2 35
26.05.2018 13:00:00 13,8 10,9 44 24 43 23 E 1023,1 10
26.05.2018 12:00:00 14,0 10,7 44 24 47 25 ENE 1023,2 10
26.05.2018 11:00:00 13,8 10,6 50 27 50 27 ENE 1023,0 10
26.05.2018 10:00:00 13,9 10,5 54 29 50 27 ENE 1022,7 10
26.05.2018 09:00:00 14,3 9,9 52 28 58 31 E 1022,7 10
26.05.2018 08:00:00 15,3 10,0 54 29 54 29 E 1022,2 10
26.05.2018 07:00:00 14,9 11,0 52 28 54 29 E 1021,8 10
26.05.2018 06:00:00 14,7 10,9 55 30 50 27 E 1021,1 10
26.05.2018 05:00:00 15,1 10,4 55 30 50 27 E 1021,2 10
26.05.2018 04:00:00 14,8 10,3 59 32 58 31 E 1021,1 10
26.05.2018 03:00:00 15,0 10,2 61 33 61 33 E 1021,1 10
26.05.2018 02:00:00 15,4 9,7 63 34 61 33 E 1021,0 10
26.05.2018 01:00:00 15,6 9,3 65 35 61 33 E 1020,8 10
26.05.2018 00:00:00 15,9 7,8 61 33 61 33 E 1020,8 10
25.05.2018 23:00:00 16,0 8,1 63 34 58 31 E 1020,5 10
25.05.2018 22:00:00 16,3 9,1 63 34 61 33 E 1020,3 10
25.05.2018 21:00:00 16,8 10,5 63 34 61 33 E 1019,7 10
25.05.2018 20:00:00 16,8 11,4 61 33 58 31 E 1019,5 10
25.05.2018 19:00:00 17,0 11,9 55 30 50 27 E 1019,2 10
25.05.2018 18:00:00 16,9 12,2 52 28 54 29 E 1019,5 10
25.05.2018 17:00:00 16,9 12,4 48 26 50 27 E 1019,6 10
25.05.2018 16:00:00 15,8 12,4 34 18 36 19 ENE 1019,9 10
25.05.2018 15:00:00 13,8 11,9 41 22 43 23 ENE 1020,1 10
25.05.2018 14:00:00 14,0 12,0 37 20 40 21 E 1020,3 10
25.05.2018 13:00:00 15,1 12,2 41 22 47 25 ESE 1020,1 10
25.05.2018 12:00:00 14,8 11,9 44 24 43 23 E 1019,9 10
25.05.2018 11:00:00 15,5 12,3 41 22 40 21 E 1019,7 10
25.05.2018 10:00:00 15,6 12,2 41 22 43 23 E 1019,5 10
25.05.2018 09:00:00 15,1 11,8 42 23 47 25 E 1019,4 10
25.05.2018 08:00:00 15,6 11,6 40 21 50 27 E 1019,0 26
25.05.2018 07:00:00 15,6 12,2 55 30 50 27 E 1018,9 10
25.05.2018 06:00:00 16,3 12,7 46 25 47 25 E 1018,5 10
25.05.2018 05:00:00 15,9 12,2 48 26 47 25 E 1018,5 10
25.05.2018 04:00:00 15,9 12,2 42 23 43 23 E 1018,9 10
25.05.2018 03:00:00 17,1 12,3 18 10 36 19 SE 1019,2 10
25.05.2018 02:00:00 14,9 12,4 44 24 50 27 ESE 1019,5 10
25.05.2018 01:00:00 15,4 11,5 50 27 47 25 E 1019,6 10
25.05.2018 00:00:00 16,3 11,7 48 26 47 25 E 1019,6 10
24.05.2018 23:00:00 16,3 11,7 36 19 43 23 E 1019,8 22
24.05.2018 22:00:00 15,9 11,7 48 26 47 25 E 1019,8 10
24.05.2018 21:00:00 15,7 11,4 54 29 54 29 E 1019,6 10
24.05.2018 20:00:00 15,4 10,7 63 34 58 31 ENE 1019,0 10
24.05.2018 19:00:00 15,7 10,4 61 33 58 31 ENE 1019,1 10
24.05.2018 18:00:00 15,3 11,1 57 31 58 31 ENE 1019,7 10
24.05.2018 17:00:00 16,5 11,3 68 37 65 35 E 1020,1 10
24.05.2018 16:00:00 15,8 11,4 50 27 58 31 E 1020,7 17
24.05.2018 15:00:00 14,6 11,3 54 29 50 27 E 1021,2 10
24.05.2018 14:00:00 14,4 10,8 54 29 50 27 ENE 1021,8 10
24.05.2018 13:00:00 14,0 10,0 54 29 50 27 ENE 1022,2 10
24.05.2018 12:00:00 14,0 9,8 54 29 50 27 ENE 1022,6 10
24.05.2018 11:00:00 14,1 10,1 50 27 47 25 ENE 1023,0 10
24.05.2018 10:00:00 14,3 9,7 48 26 50 27 ENE 1023,1 10
24.05.2018 09:00:00 14,1 9,8 54 29 47 25 ENE 1023,3 10
24.05.2018 08:00:00 13,9 10,4 50 27 47 25 ENE 1023,5 10
24.05.2018 07:00:00 13,9 10,6 52 28 47 25 ENE 1023,6 10
24.05.2018 06:00:00 13,6 10,9 52 28 47 25 ENE 1023,6 10
24.05.2018 05:00:00 13,6 10,8 52 28 47 25 ENE 1023,8 10
24.05.2018 04:00:00 13,7 10,8 54 29 50 27 ENE 1024,0 10
24.05.2018 03:00:00 13,6 10,7 50 27 47 25 ENE 1024,1 10
24.05.2018 02:00:00 13,9 10,4 52 28 50 27 ENE 1024,2 10
24.05.2018 01:00:00 13,3 10,9 54 29 50 27 ENE 1024,2 10
24.05.2018 00:00:00 13,2 11,0 52 28 50 27 NE 1024,5 10
23.05.2018 23:00:00 12,9 11,4 46 25 43 23 NE 1024,4 10
23.05.2018 22:00:00 13,1 11,2 46 25 47 25 NE 1024,2 10
23.05.2018 21:00:00 13,2 11,0 48 26 50 27 NE 1023,8 10
23.05.2018 20:00:00 13,5 10,7 54 29 50 27 NE 1023,4 10
23.05.2018 19:00:00 13,6 11,1 52 28 50 27 NE 1023,3 10
23.05.2018 18:00:00 13,6 11,3 52 28 47 25 NE 1023,3 10
23.05.2018 17:00:00 13,7 11,2 52 28 47 25 NE 1023,5 10
23.05.2018 16:00:00 13,7 10,9 48 26 47 25 NE 1023,5 10
23.05.2018 15:00:00 13,6 10,7 52 28 47 25 ENE 1023,5 10
23.05.2018 14:00:00 13,3 10,9 48 26 47 25 NE 1023,4 10
23.05.2018 13:00:00 13,2 11,1 46 25 43 23 NE 1023,4 10
23.05.2018 12:00:00 13,2 11,1 48 26 43 23 NE 1023,1 10
23.05.2018 11:00:00 13,2 11,1 46 25 43 23 NE 1022,8 10
23.05.2018 10:00:00 13,4 10,7 41 22 43 23 NE 1022,4 10
23.05.2018 09:00:00 13,5 10,7 41 22 43 23 NE 1021,8 10
23.05.2018 08:00:00 13,8 10,6 40 21 43 23 ENE 1021,1 37
23.05.2018 07:00:00 14,3 10,2 44 24 47 25 NE 1020,2 10
23.05.2018 06:00:00 13,9 10,2 52 28 47 25 ENE 1019,7 10
23.05.2018 05:00:00 13,7 10,5 48 26 43 23 NE 1019,3 10
23.05.2018 04:00:00 13,9 10,5 46 25 43 23 ENE 1019,0 10
23.05.2018 03:00:00 13,9 10,7 40 21 43 23 NE 1018,9 42
23.05.2018 02:00:00 13,8 10,8 44 24 43 23 NE 1018,7 10
23.05.2018 01:00:00 13,5 11,0 41 22 43 23 ENE 1018,8 10
23.05.2018 00:00:00 13,4 11,0 46 25 47 25 NE 1018,6 10
22.05.2018 23:00:00 13,3 11,2 42 23 43 23 NE 1018,2 10
22.05.2018 22:00:00 13,3 11,4 44 24 43 23 NE 1017,8 10
22.05.2018 21:00:00 13,7 11,3 41 22 40 21 NNE 1017,1 10
22.05.2018 20:00:00 14,1 10,9 41 22 40 21 NE 1016,7 10
22.05.2018 19:00:00 13,8 10,9 37 20 36 19 NE 1016,4 10
22.05.2018 18:00:00 13,3 11,4 35 19 32 18 NE 1016,5 10
22.05.2018 17:00:00 13,1 11,3 29 16 29 16 NE 1016,2 10
22.05.2018 16:00:00 13,4 10,8 34 18 32 18 ENE 1016,0 10
22.05.2018 15:00:00 13,1 10,7 34 18 32 18 ENE 1015,9 10
22.05.2018 14:00:00 12,9 10,9 34 18 32 18 ENE 1015,8 10
22.05.2018 13:00:00 12,8 10,8 28 15 32 18 ENE 1015,4 10
22.05.2018 12:00:00 12,5 10,9 34 18 32 18 ENE 1015,1 10
22.05.2018 11:00:00 12,6 10,9 31 17 29 16 E 1015,0 10
22.05.2018 10:00:00 14,0 11,1 26 14 29 16 E 1014,8 10
22.05.2018 09:00:00 14,8 11,2 28 15 32 18 ESE 1014,6 10
22.05.2018 08:00:00 14,7 11,0 28 15 29 16 ESE 1014,2 10
22.05.2018 07:00:00 15,2 10,8 31 17 29 16 ESE 1014,1 10
22.05.2018 06:00:00 15,0 10,8 31 17 32 18 ESE 1013,7 10
22.05.2018 05:00:00 14,8 10,8 34 18 32 18 ESE 1013,7 10
22.05.2018 04:00:00 14,7 11,0 37 20 36 19 ESE 1013,7 10
22.05.2018 03:00:00 14,6 11,0 46 25 50 27 E 1014,0 10
22.05.2018 02:00:00 14,6 11,0 54 29 50 27 E 1014,1 10
22.05.2018 01:00:00 14,7 11,0 50 27 50 27 E 1014,4 10
22.05.2018 00:00:00 14,8 10,8 54 29 54 29 E 1014,7 10
21.05.2018 23:00:00 15,2 10,5 61 33 58 31 E 1014,7 10
21.05.2018 22:00:00 15,5 9,8 65 35 61 33 E 1014,9 10
21.05.2018 21:00:00 14,8 9,9 59 32 58 31 ENE 1014,8 10
21.05.2018 20:00:00 14,6 9,4 59 32 54 29 ENE 1015,1 10
21.05.2018 19:00:00 14,4 9,5 59 32 58 31 E 1015,5 10
21.05.2018 18:00:00 14,1 9,6 57 31 54 29 ENE 1015,8 10
21.05.2018 17:00:00 13,9 9,4 57 31 54 29 ENE 1016,4 10
21.05.2018 16:00:00 14,8 9,7 59 32 54 29 E 1017,0 10
21.05.2018 15:00:00 13,8 10,3 54 29 50 27 E 1017,6 10
21.05.2018 14:00:00 14,3 10,5 55 30 50 27 E 1018,0 10
21.05.2018 13:00:00 14,6 10,4 50 27 50 27 E 1018,7 10
21.05.2018 12:00:00 14,4 10,0 48 26 47 25 E 1019,2 10
21.05.2018 11:00:00 13,8 10,0 48 26 43 23 E 1019,5 10
21.05.2018 10:00:00 13,3 9,8 37 20 40 21 E 1019,8 10
21.05.2018 09:00:00 13,5 9,3 35 19 32 18 ESE 1020,0 10
21.05.2018 08:00:00 13,4 9,5 35 19 32 18 ESE 1020,3 10
21.05.2018 07:00:00 13,5 9,6 41 22 36 19 ESE 1020,3 10

tt = Température de l'air
td = dewpoint
ff = Vitesse du vent
fx = gusts
dd = Direction du vent
ppp = reduced air pressure
vv = visibility

stations d'obs. à proximité